Mackall AAF, NC

7:44 AM EST on January 16, 2018 (GMT -0500)
Mackall Army Air Field

Weather History for KHFF - July, 2013

Change the Weather History Date:

Wednesday, July 3, 2013

  Actual Average Record
Temperature  
Mean Temperature 78 °F -  
Max Temperature 84 °F 87 °F 99 °F (2012)
Min Temperature 71 °F 70 °F 57 °F (2010)
Cooling Degree Days 12    
Growing Degree Days 28 (Base 50)    
Moisture  
Dew Point 73 °F    
Average Humidity 90    
Maximum Humidity 100    
Minimum Humidity 70    
Precipitation  
Precipitation 0.83 in - - ()
Sea Level Pressure  
Sea Level Pressure 30.23 in    
Wind  
Wind Speed 6 mph (SSE)    
Max Wind Speed 14 mph    
Max Gust Speed 26 mph    
Visibility 10 miles    
Events Rain , Thunderstorm    
Averages and records for this station are not official NWS values.
T = Trace of Precipitation, MM = Missing Value Source: NWS Daily Summary

Daily Weather History Graph

Daily Weather History Graph

Search for Another Location

Airport or City:

Trip Planner

Search our weather history database for the weather conditions in past years. The results will help you decide how hot, cold, wet, or windy it might be!

Date:

Astronomy

Jul. 03, 2013 Rise Set
Actual Time 6:08 AM EDT 8:35 PM EDT
Civil Twilight 5:39 AM EDT 9:05 PM EDT
Nautical Twilight 5:02 AM EDT 9:41 PM EDT
Astronomical Twilight 4:22 AM EDT 10:21 PM EDT
Moon 2:40 AM EDT (7/3) 4:48 PM EDT (7/3)
Length of Visible Light 15h 26m
Length of Day
14h 27m
Waning Crescent, 18% of the Moon is Illuminated
Jul 3
Waning Crescent
Jul 8
New
Jul 15
First Quarter
Jul 22
Full
Jul 29
Last Quarter

Hourly Weather History & Observations

Time (EDT) Temp. Heat Index Dew Point Humidity Pressure Visibility Wind Dir Wind Speed Gust Speed Precip Events Conditions
12:11 AM 73.4 °F - 73.4 °F 100% 30.19 in 12.0 mi SSE 6.9 mph - N/A   Mostly Cloudy
12:17 AM 73.4 °F - 73.4 °F 100% 30.18 in 12.0 mi SSE 6.9 mph - N/A   Mostly Cloudy
12:56 AM 74.1 °F - 72.3 °F 94% 30.18 in 12.0 mi SE 8.1 mph - N/A   Mostly Cloudy
1:56 AM 74.5 °F - 72.7 °F 94% 30.18 in 12.0 mi SSE 8.1 mph - N/A   Mostly Cloudy
2:06 AM 75.2 °F - 73.4 °F 94% 30.18 in 12.0 mi South 8.1 mph - N/A   Mostly Cloudy
2:36 AM 75.2 °F - 73.4 °F 94% 30.18 in 11.0 mi South 9.2 mph - N/A   Overcast
2:56 AM 74.8 °F - 72.9 °F 94% 30.18 in 9.0 mi South 6.9 mph - N/A   Overcast
3:27 AM 75.2 °F - 73.4 °F 94% 30.17 in 11.0 mi South 5.8 mph - N/A   Mostly Cloudy
3:56 AM 75.0 °F - 73.0 °F 94% 30.18 in 11.0 mi South 6.9 mph - N/A   Mostly Cloudy
4:56 AM 75.0 °F - 72.9 °F 93% 30.18 in 11.0 mi South 4.6 mph - N/A   Mostly Cloudy
5:21 AM 75.2 °F - 73.4 °F 94% 30.19 in 9.0 mi SE 8.1 mph - N/A Rain Light Rain
5:56 AM 72.7 °F - 70.0 °F 91% 30.20 in 11.0 mi South 6.9 mph - 0.18 in Rain Light Rain Showers
6:01 AM 73.4 °F - 69.8 °F 88% 30.21 in 12.0 mi South 5.8 mph - N/A Rain Light Rain Showers
6:12 AM 71.6 °F - 69.8 °F 94% 30.21 in 9.0 mi South 6.9 mph - N/A Rain Light Rain Showers
6:31 AM 71.6 °F - 69.8 °F 94% 30.20 in 12.0 mi South 4.6 mph - N/A   Mostly Cloudy
6:56 AM 72.1 °F - 70.3 °F 94% 30.21 in 12.0 mi SE 3.5 mph - 0.02 in   Scattered Clouds
7:12 AM 71.6 °F - 71.6 °F 100% 30.22 in 12.0 mi SE 1.2 mph - N/A   Mostly Cloudy
7:17 AM 71.6 °F - 71.6 °F 100% 30.22 in 12.0 mi SE 1.2 mph - N/A   Mostly Cloudy
7:21 AM 71.6 °F - 71.6 °F 100% 30.23 in 12.0 mi SE 2.3 mph - N/A   Mostly Cloudy
7:25 AM 73.4 °F - 71.6 °F 94% 30.23 in 12.0 mi SSE 2.3 mph - N/A Rain Light Rain
7:31 AM 73.4 °F - 71.6 °F 94% 30.23 in 2.0 mi East 2.3 mph - N/A Rain Rain
7:36 AM 73.4 °F - 71.6 °F 94% 30.23 in 1.5 mi Variable 2.3 mph - N/A Rain Heavy Rain
7:41 AM 73.4 °F - 71.6 °F 94% 30.23 in 4.0 mi SE 3.5 mph - N/A Rain Heavy Rain
7:52 AM 73.4 °F - 71.6 °F 94% 30.23 in 1.9 mi West 5.8 mph - N/A Rain Heavy Rain
7:56 AM 73.2 °F - 71.4 °F 94% 30.23 in 1.8 mi WNW 4.6 mph - 0.16 in Rain Heavy Rain
8:01 AM 73.4 °F - 71.6 °F 94% 30.23 in 5.0 mi West 3.5 mph - N/A Rain Heavy Rain
8:06 AM 73.4 °F - 71.6 °F 94% 30.23 in 12.0 mi West 4.6 mph - N/A Rain Rain Showers
8:11 AM 73.4 °F - 71.6 °F 94% 30.23 in 12.0 mi SW 3.5 mph - N/A Rain Light Rain Showers
8:17 AM 73.4 °F - 71.6 °F 94% 30.23 in 12.0 mi Variable 1.2 mph - N/A   Mostly Cloudy
8:38 AM 75.2 °F - 71.6 °F 89% 30.24 in 12.0 mi SSW 2.3 mph - N/A   Overcast
8:56 AM 75.2 °F - 72.5 °F 91% 30.24 in 12.0 mi NE 1.2 mph - 0.01 in   Mostly Cloudy
9:12 AM 75.2 °F - 73.4 °F 94% 30.24 in 12.0 mi Variable 1.2 mph - N/A   Mostly Cloudy
9:19 AM 77.0 °F - 75.2 °F 94% 30.24 in 12.0 mi SE 3.5 mph - N/A Rain Light Rain
9:36 AM 77.0 °F - 75.2 °F 94% 30.24 in 12.0 mi ESE 4.6 mph - N/A   Mostly Cloudy
9:46 AM 78.8 °F - 75.2 °F 89% 30.24 in 12.0 mi SE 5.8 mph - N/A   Scattered Clouds
9:51 AM 78.8 °F - 73.4 °F 83% 30.23 in 12.0 mi SE 6.9 mph - N/A   Scattered Clouds
9:56 AM 78.6 °F - 75.2 °F 89% 30.23 in 12.0 mi ESE 6.9 mph - N/A   Partly Cloudy
10:56 AM 83.3 °F 89.9 °F 73.8 °F 73% 30.24 in 12.0 mi SE 11.5 mph - N/A   Mostly Cloudy
11:12 AM 82.4 °F 88.2 °F 73.4 °F 74% 30.24 in 12.0 mi SSE 9.2 mph - N/A   Mostly Cloudy
11:39 AM 82.4 °F 89.5 °F 75.2 °F 79% 30.23 in 12.0 mi SSE 6.9 mph - N/A Rain Light Rain
11:51 AM 80.6 °F 86.2 °F 75.2 °F 84% 30.23 in 12.0 mi SSW 2.3 mph - N/A Rain Rain
11:56 AM 80.1 °F 84.5 °F 73.6 °F 81% 30.23 in 12.0 mi WSW 1.2 mph - 0.07 in Rain Rain Showers
12:05 PM 80.6 °F 86.2 °F 75.2 °F 84% 30.23 in 12.0 mi Variable 1.2 mph - N/A   Mostly Cloudy
12:56 PM 84.2 °F 91.6 °F 74.1 °F 72% 30.22 in 12.0 mi SSE 8.1 mph - N/A   Mostly Cloudy
12:57 PM 84.2 °F 90.9 °F 73.4 °F 70% 30.22 in 12.0 mi SSE 10.4 mph - N/A Thunderstorm Thunderstorm
1:11 PM 80.6 °F 84.6 °F 71.6 °F 74% 30.24 in 9.0 mi SSE 12.7 mph 26.5 mph N/A Rain , Thunderstorm Light Thunderstorms and Rain
1:27 PM 75.2 °F - 71.6 °F 89% 30.26 in 2.2 mi South 12.7 mph 21.9 mph N/A Rain , Thunderstorm Heavy Thunderstorms and Rain
1:28 PM 73.4 °F - 71.6 °F 94% 30.26 in 2.2 mi SSW 13.8 mph 21.9 mph N/A Rain , Thunderstorm Heavy Thunderstorms and Rain
1:30 PM 73.4 °F - 71.6 °F 94% 30.26 in 2.2 mi SW 11.5 mph 21.9 mph N/A Rain , Thunderstorm Heavy Thunderstorms and Rain
1:35 PM 73.4 °F - 71.6 °F 94% 30.25 in 6.0 mi WSW 10.4 mph 18.4 mph N/A Rain , Thunderstorm Heavy Thunderstorms and Rain
1:41 PM 73.4 °F - 71.6 °F 94% 30.26 in 12.0 mi WSW 11.5 mph - N/A Rain , Thunderstorm Heavy Thunderstorms and Rain
1:56 PM 74.1 °F - 71.8 °F 92% 30.26 in 10.0 mi SW 8.1 mph - 0.34 in Rain , Thunderstorm Thunderstorms and Rain
2:26 PM 73.4 °F - 71.6 °F 94% 30.24 in 8.0 mi Variable 3.5 mph - N/A Rain Rain Showers
2:55 PM 75.2 °F - 73.4 °F 94% 30.22 in 12.0 mi South 3.5 mph - N/A Rain Light Rain Showers
2:56 PM 75.2 °F - 73.2 °F 94% 30.22 in 12.0 mi South 3.5 mph - 0.04 in Rain Light Rain Showers
3:06 PM 75.2 °F - 75.2 °F 100% 30.22 in 12.0 mi SSW 4.6 mph - N/A Thunderstorm Partly Cloudy
3:56 PM 79.7 °F - 74.3 °F 83% 30.22 in 12.0 mi SSW 5.8 mph - 0.01 in   Partly Cloudy
4:56 PM 81.9 °F 86.6 °F 72.0 °F 72% 30.21 in 12.0 mi SSE 9.2 mph - N/A   Scattered Clouds
5:56 PM 80.8 °F 85.2 °F 72.7 °F 76% 30.21 in 12.0 mi SSE 9.2 mph - N/A   Partly Cloudy
6:49 PM 80.6 °F 85.4 °F 73.4 °F 79% 30.22 in 12.0 mi SSE 11.5 mph - N/A   Mostly Cloudy
6:56 PM 80.2 °F 84.5 °F 72.7 °F 78% 30.22 in 12.0 mi South 8.1 mph - N/A   Mostly Cloudy
7:01 PM 80.6 °F 85.4 °F 73.4 °F 79% 30.23 in 12.0 mi South 5.8 mph - N/A   Scattered Clouds
7:56 PM 77.7 °F - 73.0 °F 85% 30.23 in 12.0 mi SE 9.2 mph - N/A   Partly Cloudy
8:56 PM 75.9 °F - 72.7 °F 90% 30.23 in 12.0 mi SE 8.1 mph - N/A   Clear
9:56 PM 74.8 °F - 72.3 °F 92% 30.26 in 12.0 mi SE 4.6 mph - N/A   Scattered Clouds
10:48 PM 75.2 °F - 73.4 °F 94% 30.26 in 12.0 mi SE 4.6 mph - N/A   Mostly Cloudy
10:56 PM 74.1 °F - 72.3 °F 94% 30.26 in 12.0 mi SE 4.6 mph - N/A   Mostly Cloudy
11:01 PM 75.2 °F - 73.4 °F 94% 30.26 in 12.0 mi SSE 3.5 mph - N/A   Mostly Cloudy
11:09 PM 75.2 °F - 73.4 °F 94% 30.26 in 12.0 mi SSE 4.6 mph - N/A Rain Light Rain
11:27 PM 73.4 °F - 71.6 °F 94% 30.26 in 12.0 mi SE 4.6 mph - N/A   Mostly Cloudy
11:43 PM 73.4 °F - 71.6 °F 94% 30.27 in 12.0 mi South 5.8 mph - N/A   Scattered Clouds
11:56 PM 73.6 °F - 71.8 °F 94% 30.27 in 12.0 mi SSE 5.8 mph - N/A   Partly Cloudy